Regional Weather Roundup
Issued by NWS

Home | Current Version | Previous Version | Text Only | Print | Product List | Glossary On
Versions: 1 2 3 4 5 6 7 8 9 10 11 12 13 14 15 16 17 18 19 20 21 22 23 24 25 26 27 28 29 30 31 32 33 34 35 36 37 38 39 40 41 42 43 44 45 46 47 48 49 50
000
ASUS45 KBOI 050510
RWRID

IDAHO REGIONAL WEATHER ROUNDUP
NATIONAL WEATHER SERVICE BOISE ID
1100 PM MDT TUE AUG 04 2015

NOTE: "FAIR" INDICATES FEW OR NO CLOUDS BELOW 12000 FEET
WITH NO SIGNIFICANT WEATHER AND/OR OBSTRUCTIONS TO VISIBILITY

IDZ012-014-050600-
SOUTHWEST IDAHO


CITY           SKY/WX    TMP DP  RH WIND       PRES   REMARKS
BOISE          MOCLDY    80  48  32 S7        29.86S
CALDWELL       MOCLDY    75  48  38 S7        29.85S
MOUNTAIN HOME  MOCLDY    74  54  48 S6        29.90R
$$

IDZ016-017-050600-
SOUTHCENTRAL IDAHO


CITY           SKY/WX    TMP DP  RH WIND       PRES   REMARKS
BURLEY         MOCLDY    68  52  56 N7        30.02R
JEROME         MOCLDY    66  50  56 NE13      30.00F
TWIN FALLS     PTCLDY    71  49  45 NE8       29.99R
$$

IDZ019>023-050600-
SOUTHEAST IDAHO


CITY           SKY/WX    TMP DP  RH WIND       PRES   REMARKS
IDAHO FALLS    MOCLDY    58  46  64 W5        30.07R
POCATELLO      MOCLDY    70  49  47 W14       30.07R
REXBURG        PTCLDY    63  49  60 NE5       30.10R
$$

IDZ006-010-011-018-031-032-050600-
CENTRAL IDAHO MOUNTAINS


CITY           SKY/WX    TMP DP  RH WIND       PRES   REMARKS
MCCALL         CLEAR     62  37  39 CALM      30.01R
HAILEY         PTCLDY    63  55  77 N9        30.13F
STANLEY          N/A     59  32  36 S6        30.14S
SALMON         PTCLDY    64  43  45 SE3       29.95R
CHALLIS        MOCLDY    75  26  16 W7        30.02R
$$

IDZ002-004-006-007-026-050600-
NORTHERN IDAHO


CITY           SKY/WX    TMP DP  RH WIND       PRES   REMARKS
LEWISTON       PTCLDY    80  36  20 S7        29.82R
LOWELL           N/A     66  60  81 N3        29.89R
COEUR D`ALENE  CLEAR     66  39  37 W3        29.84S
MULLAN PASS    CLEAR     61  35  37 S7        30.07S
$$



USA.gov is the U.S. government's official web portal to all federal, state and local government web resources and services.